Roanoke Regional Airport Airport (ROA)

 

Airport Diagram
Current Weather/Forecast (VFR Conditions)
METAR KROA 301554Z 26007KT 10SM FEW042 17/07 A2998 RMK AO2 SLP148 T01720067
TAF KROA 301120Z 3012/0112 28008KT P6SM SCT045 FM301500 27010G20KT P6SM SCT040 FM302000 23012G22KT P6SM FEW250 FM010000 22007KT P6SM FEW250 FM010600 26005KT P6SM BKN250

All Charts
General
Chart Name Download
AIRPORT DIAGRAM
TAKEOFF MINIMUMS
ALTERNATE MINIMUMS
HOT SPOT

Departures
Chart Name Download
BUFIY THREE (RNAV)
DIXXY EIGHT
HOKEE THREE
MONAT THREE (RNAV)
SCUTA THREE (RNAV)

Approaches
Chart Name Download
ILS OR LOC RWY 34
RNAV (RNP) Z RWY 06
RNAV (RNP) Z RWY 24
RNAV (RNP) Z RWY 34
RNAV (GPS) Y RWY 06
RNAV (GPS) Y RWY 24
RNAV (GPS) Y RWY 34
LDA Y RWY 06
LDA Z RWY 06
VOR/DME-A


Inbound Traffic (Arrivals)

No inbound traffic.


Outbound Traffic (Departures)

No outbound traffic.